www.pogodaiklimat.ru

Погода и климат >> Архив погоды >> Индия >> Мадхья-Прадеш >> Индор


ПОГОДА в Индоре

  • Прогноз погоды в Индоре
  • Монитор погоды в Индоре

АРХИВ ПОГОДЫ в Индоре

Время (UTC), дата Ветер
(напр.,м/с)
 
Видим.   Явления Облачность Т
(С)
Тd
(С)
f
(%)
Тe
(С)
Тes
(С)
Комфортность P
(гПа)
Po
(гПа)
Тmin
(С)
Tmax
(С)
R
(мм)
R24
(мм)
S
(см)
21 16.01 Ю 1 4000 м мгла ясно +15.0 +3.9 47 +16 +16 1015.3 950.0
00 17.01 ЮВ 2 4000 м мгла ясно +12.6 +2.7 51 +12 +12 1014.7 949.0
03 17.01 штиль 0 2000 м мгла ясно +14.0 +6.1 59 +14 +17 1016.7 951.1 +11.6
06 17.01 СЗ 1 4000 м мгла ясно +23.6 +7.1 35 +24 +37 комфорт 1015.0 951.6
09 17.01 З 3 4000 м мгла ясно +26.6 +6.6 28 +26 +33 жарко 1011.3 948.9
12 17.01 С 3 4000 м мгла ясно +26.0 +6.1 28 +26 +26 жарко 1011.2 948.6 +28.2
15 17.01 СВ 1 4000 м мгла ясно +19.8 +7.1 44 +22 +22 комфорт 1014.2 950.1
18 17.01 СВ 3 4000 м мгла ясно +16.8 +7.8 55 +17 +17 1015.2 950.4
21 17.01 В 2 4000 м мгла ясно +14.0 +7.4 64 +14 +14 1015.0 949.5
00 18.01 В 1 4000 м мгла ясно +13.2 +6.0 62 +14 +14 1015.6 950.1
03 18.01 В 3 2000 м мгла ясно +15.6 +4.7 48 +15 +17 1018.1 952.9 +12.0
06 18.01 В 4 4000 м мгла ясно +23.4 +5.1 31 +24 +31 комфорт 1016.6 953.1
09 18.01 СВ 3 4000 м ясно +26.2 -2.5 15 +24 +31 комфорт 1012.9 950.3
12 18.01 С 3 4000 м ясно +24.6 +2.4 23 +24 +24 комфорт 1012.9 949.9 +26.6
15 18.01 СВ 2 4000 м мгла ясно +20.4 +3.7 33 +22 +22 комфорт 1015.4 951.4
18 18.01 В 1 4000 м мгла ясно +16.8 +4.3 43 +18 +18 1016.8 951.9
21 18.01 В 2 4000 м мгла ясно +15.4 +4.4 48 +16 +16 1015.9 950.9
00 19.01 штиль 0 4000 м мгла ясно +10.6 +5.2 69 +10 +10 1016.7 950.5
03 19.01 В 2 2000 м мгла ясно +17.4 +5.7 46 +18 +20 1017.2 952.5 +10.0
06 19.01 В 5 4000 м ясно +24.6 +0.3 20 +23 +30 комфорт 1016.9 953.6
09 19.01 В 3 4000 м ясно +27.8 -2.9 13 +25 +32 комфорт 1013.2 950.8
12 19.01 В 2 4000 м ясно +27.0 -1.4 15 +25 +25 комфорт 1012.8 950.2 +28.2
15 19.01 В 1 4000 м мгла ясно +22.0 +2.1 27 +22 +22 комфорт 1015.7 951.9
18 19.01 В 2 4000 м мгла ясно +16.6 +5.1 47 +17 +17 1017.4 952.5
21 19.01 штиль 0 4000 м мгла ясно +15.2 +4.7 49 +15 +15 1016.6 951.4
00 20.01 штиль 0 4000 м мгла ясно +12.0 +4.5 60 +12 +12 1017.3 951.2
03 20.01 ЮВ 3 2000 м мгла ясно +18.2 +1.9 34 +18 +20 1017.4 952.9 +11.2
06 20.01 Ю 3 4000 м мгла ясно +29.0 +5.0 22 +28 +37 жарко 1015.7 953.3
09 20.01 Ю 2 4000 м ясно +31.0 +4.5 19 +29 +37 жарко 1011.7 950.0
12 20.01 З 2 4000 м ясно +28.2 +4.7 22 +27 +27 жарко 1011.1 949.0 +31.8
15 20.01 ЮВ 1 4000 м мгла ясно +20.4 +8.8 47 +23 +23 комфорт 1014.3 950.4
18 20.01 ЮВ 2 4000 м мгла ясно +18.0 +8.4 53 +19 +19 1014.8 950.2
21 20.01 ЮВ 2 4000 м мгла ясно +16.6 +7.5 55 +17 +17 1014.4 949.6
00 21.01 Ю 4 4000 м мгла ясно +16.6 +8.0 57 +16 +16 1013.1 948.5
03 21.01 ЮВ 2 4000 м мгла ясно +20.4 +7.4 43 +22 +25 комфорт 1013.9 950.0 +16.0
06 21.01 Ю 9 4000 м мгла ясно +28.6 +6.1 24 +27 +28 жарко 1012.6 950.5
09 21.01 Ю 2 4000 м мгла ясно +28.4 +5.1 23 +27 +36 жарко 1008.3 946.4
12 21.01 З 3 4000 м мгла ясно +26.0 +7.7 31 +26 +26 жарко 1008.4 945.9 +29.2
15 21.01 З 3 4000 м мгла ясно +20.2 +9.0 48 +22 +22 комфорт 1010.7 947.0
18 21.01 ЮЗ 3 4000 м мгла ясно +18.2 +7.7 50 +18 +18 1010.8 946.8
21 21.01 ЮЗ 2 4000 м мгла ясно +17.6 +7.9 53 +18 +18 1010.7 946.4
00 22.01 З 2 4000 м мгла ясно +15.0 +8.2 64 +15 +15 1011.9 946.9
03 22.01 В 1 2000 м мгла ясно +15.6 +9.4 67 +16 +19 1014.4 949.4 +12.6
06 22.01 ЮЗ 7 4000 м мгла ясно +22.4 +11.5 50 +25 +28 комфорт 1013.0 949.6
09 22.01 З 6 4000 м мгла 4/4 600 м
[Sc diur, vesp]
+23.2 +10.8 46 +25 +27 комфорт 1010.8 947.7
12 22.01 З 2 4000 м мгла 4/4 600 м
[Sc diur, vesp]
+22.6 +10.9 48 +25 +25 комфорт 1010.9 947.6 +24.9
15 22.01 З 2 4000 м мгла 4/4 600 м
[Sc]
+19.4 +9.7 53 +21 +21 комфорт 1013.4 949.3
18 22.01 З 3 4000 м мгла ясно +16.4 +9.0 62 +16 +16 1014.3 949.5
21 22.01 З 2 4000 м мгла ясно +15.2 +8.4 64 +15 +15 1014.2 949.2
00 23.01 штиль 0 4000 м мгла ясно +14.0 +8.3 68 +14 +14 1014.7 949.2
03 23.01 штиль 0 2000 м мгла ясно +14.4 +10.0 75 +14 +17 1016.2 950.9 +11.0
06 23.01 З 2 4000 м мгла 3/3 600 м
[Sc]
+22.6 +10.4 46 +24 +32 комфорт 1015.4 951.8
09 23.01 З 3 4000 м мгла 4/4 600 м
[Sc diur, vesp]
+24.2 +9.5 39 +25 +29 комфорт 1011.9 949.0
12 23.01 С 4 4000 м 4/4 600 м
[Sc diur, vesp]
+22.6 +9.5 43 +24 +24 комфорт 1012.7 949.3 +25.0
15 23.01 Ю 2 4000 м мгла 3/3 600 м
[Sc]
+18.0 +8.8 55 +19 +19 1015.2 950.6
18 23.01 СВ 2 4000 м мгла ясно +17.4 +9.0 58 +18 +18 1015.5 950.9

 

Местоположение метеостанции Индор (Мадхья-Прадеш, Индия): широта 22.72 долгота 75.80 высота над уровнем моря 567 м.

В архиве по умолчанию представлена погода в Индоре за последнюю неделю. Архивные данные за месяц целиком и за предыдущие месяцы, начиная с января 2011 года, Вы можете получить, выбрав интересующий диапазон дат из раскрывающегося списка и нажав кнопку "Ввод!".


*Определитесь, кто Вы:
робот инопланетянин человек

Внимание! Время в таблицах - всемирное. Для получения местного времени необходимо прибавить поправку, которая равна 5.5 ч.

Смотрите также архив погоды в соседних городах и на ближайших метеорологических станциях:

Погода в Удджайне (Мадхья-Прадеш, Индия) (51 км)
Погода в Дхаре (Мадхья-Прадеш, Индия) (53 км)
Погода в Шаджапуре (Мадхья-Прадеш, Индия) (95 км)
Погода в Ратламе (Мадхья-Прадеш, Индия) (102 км)
Погода в Кхаргоне (Мадхья-Прадеш, Индия) (102 км)
Погода в Кхандве (Мадхья-Прадеш, Индия) (115 км)
Погода в Бхопале (Мадхья-Прадеш, Индия) (170 км)
Погода в Раджгархе (Мадхья-Прадеш, Индия) (171 км)
Погода в Джалгаоне (Махараштра, Индия) (187 км)
Погода в Хошангабаде (Мадхья-Прадеш, Индия) (202 км)

Пояснения к столбцам:

Ветер - указаны скорость ветра в м/с - средняя за 10 мин, порывы в срок и между сроками (в фигурных скобках) и направление, откуда дует ветер: С - северный, СВ - северо-восточный, В - восточный, ЮВ - юго-восточный, Ю - южный, ЮЗ - юго-западный, З - западный, СЗ - северо-западный.
Видимость - горизонтальная дальность видимости в метрах или километрах. При видимости от 1 до 10 км при отсутствии осадков обычно наблюдается дымка, при ухудшении видимости до 1 км и менее - туман. В сухую погоду видимость может ухудшаться дымом, пылью или мглою.
Явления - указаны атмосферные явления, наблюдавшиеся в срок или в последний час перед сроком; фигурными скобками обозначены явления, наблюдавшиеся между сроками (за 1-3 часа до срока); квадратными скобками обозначены град или гололедные отложения с указанием их диаметра в мм.
Облачность - указаны через наклонную черту общая и нижняя облачность в баллах и высота нижней границы облаков в метрах; квадратными скобками обозначены формы облаков: Ci - перистые, Cs - перисто-слоистые, Cc - перисто-кучевые, Ac - высококучевые, As - высокослоистые, Sc - слоисто-кучевые, Ns - слоисто-дождевые, Cu - кучевые, Cb - кучево-дождевые. Подробнее классификацию облаков см. в Атласе облаков (PDF).
T - Температура воздуха - температура, измеренная на высоте 2 м над землей.
Td - Температура точки росы - температура, при понижении до которой содержащийся в воздухе водяной пар достигнет насыщения.
f - Относительная влажность воздуха - влажноcть воздуха, измеренная на высоте 2 м над землей.
Te - Эффективная температура - температура, которую ощущает одетый по сезону человек в тени. Характеристика душности погоды. При расчете учитывается влияние влажности воздуха и скорости ветра на теплоощущения человека.
Tes - Эффективная температура на солнце - температура, которую ощущает человек, с поправкой на солнечный нагрев. Характеристика знойности погоды. Зависит от высоты солнца над горизонтом, облачности и скорости ветра. Ночью, в пасмурную погоду, а также при ветре 12 м/с и более поправка равна нулю.
P - Атмосферное давление - приведенное к уровню моря атмосферное давление.
Po - Атмосферное давление - измеренное на уровне метеостанции атмосферное давление.
Tmin - Минимальная температура - минимум температуры воздуха на высоте 2 м над землей.
Tmax - Максимальная температура - максимум температуры воздуха на высоте 2 м над землей.
R - Количество осадков - Количество выпавших осадков за период времени, мм. При наведении курсора мыши на число - период времени, за который выпало указанное количество осадков.
R24 - Количество осадков - Количество выпавших осадков за 24 часа, мм.
S - Снежный покров - Высота снежного покрова, см. При наведении курсора мыши на число - состояние снежного покрова и степень покрытия местности в баллах.